Regional Weather Roundup
Issued by NWS

Home | Current Version | Previous Version | Text Only | Print | Product List | Glossary On
Versions: 1 2 3 4 5 6 7 8 9 10 11 12 13 14 15 16 17 18 19 20 21 22 23 24 25 26 27 28 29 30 31 32 33 34 35 36 37 38 39 40 41 42 43 44 45 46 47 48 49 50
510
ASUS43 KLSX 302157
RWRMO

WEATHER SUMMARY FOR MISSOURI
NATIONAL WEATHER SERVICE SPRINGFIELD MO
500 PM CDT SAT APR 30 2016

NOTE: "FAIR" INDICATES FEW OR NO CLOUDS BELOW 12,000 FEET WITH NO
       SIGNIFICANT WEATHER AND/OR OBSTRUCTIONS TO VISIBILITY.
       CURRENT SKY AND/OR WEATHER CONDITIONS ARE NOT AVAILABLE FOR
       CHILLICOTHE AND FARMINGTON.

MOZ001>031-035>038-043-044-053-054-302300-
...NORTHERN AND WESTERN MISSOURI...

CITY           SKY/WX    TMP DP  RH WIND       PRES   REMARKS
KANSAS CTY INT PTSUNNY   65  50  58 W13       29.73S
LEE`S SUMMIT   SUNNY     67  51  56 W13       29.73R
ST JOSEPH      MOSUNNY   64  50  60 W13       29.73S
CHILLICOTHE      N/A     70  54  56 VRB5      29.74R

$$
MOZ066>068-077>081-088>096-101>105-302300-
...SOUTHWEST MISSOURI...

CITY           SKY/WX    TMP DP  RH WIND       PRES   REMARKS
SPRINGFIELD    PTSUNNY   73  59  61 W13       29.75S
JOPLIN         SUNNY     68  53  58 W13       29.76S
BRANSON        PTSUNNY   73  63  68 W9        29.76R

$$
MOZ032>034-039>042-045>050-055>058-069>072-302300-
...CENTRAL MISSOURI...

CITY           SKY/WX    TMP DP  RH WIND       PRES   REMARKS
COLUMBIA       NOT AVBL
JEFFERSON CITY PTSUNNY   76  58  53 W15       29.70S
ROLLA          RAIN      68  61  78 SW9G20    29.73R
SEDALIA        MOSUNNY   72  55  55 W13       29.75R
WARRENSBURG    SUNNY     68  50  52 W13G22    29.73R

$$
MOZ051-052-059>065-302300-
...EAST CENTRAL MISSOURI...

CITY           SKY/WX    TMP DP  RH WIND       PRES   REMARKS
ST LOUIS INTL  PTSUNNY   76  61  59 S8        29.74S

$$
MOZ072>076-082>087-097>100-106>115-302300-
...SOUTH CENTRAL AND SOUTHEAST MISSOURI...

CITY           SKY/WX    TMP DP  RH WIND       PRES   REMARKS
CAPE GIRARDEAU PTSUNNY   73  61  65 S12       29.77S
POPLAR BLUFF   MOSUNNY   74  63  68 S8        29.76R
WEST PLAINS    MOSUNNY   72  59  63 SW6       29.76R

$$



USA.gov is the U.S. government's official web portal to all federal, state and local government web resources and services.